Location: ??????
(41.3747°N, 22.5491°E)
Time: 15:55:33
(UTC+00:00)

Okean-O - Pass Details

Date: 01 December 2020
Orbit: 639 x 640 km, 98.2° (Epoch: 20 January)

Event Time Altitude Azimuth Distance (km) Brightness Sun altitude
Rises 16:19:18 0° 139° (SE) 2,932 5.8 -14.3°
Reaches altitude 10° 16:21:42 10° 129° (SE) 2,028 4.9 -14.8°
Maximum altitude 16:25:32 30° 69° (ENE) 1,160 3.4 -15.5°
Drops below altitude 10° 16:29:23 10° 8° (N) 2,041 5.0 -16.2°
Sets 16:31:48 0° 358° (N) 2,955 5.9 -16.6°
